| time (UTC) | temp C | wind direction | speed KPH | gust KPH | rain 1hr cm | rain 24hr cm | rain mn cm | humidity % | barometer mb |
| 20260901070217 | 15 | 253 | 11.3 | 16.1 | 0.00 | 0.03 | 0.00 | 78 | 1022.3 |
| 20260901065217 | 15 | 260 | 9.7 | 14.5 | 0.00 | 0.03 | 0.00 | 78 | 1022.4 |
| 20260901064216 | 15 | 267 | 6.4 | 9.7 | 0.00 | 0.03 | 0.00 | 79 | 1022.4 |
| 20260901063217 | 15 | 264 | 9.7 | 11.3 | 0.00 | 0.03 | 0.00 | 79 | 1021.7 |
| 20260901062217 | 15 | 259 | 8.0 | 11.3 | 0.00 | 0.03 | 0.00 | 79 | 1021.7 |
| 20260901061217 | 15 | 266 | 16.1 | 17.7 | 0.00 | 0.03 | 0.00 | 78 | 1021.9 |
| 20260901060216 | 15 | 258 | 9.7 | 16.1 | 0.00 | 0.03 | 0.00 | 78 | 1021.8 |
| 20260901055216 | 15 | 258 | 11.3 | 16.1 | 0.00 | 0.03 | 0.03 | 78 | 1021.8 |
| 20260901054216 | 15 | 261 | 8.0 | 12.9 | 0.00 | 0.03 | 0.03 | 78 | 1022.0 |
| 20260901053216 | 15 | 261 | 4.8 | 6.4 | 0.00 | 0.03 | 0.03 | 78 | 1021.9 |
| 20260901052216 | 15 | 272 | 8.0 | 12.9 | 0.00 | 0.03 | 0.03 | 78 | 1022.1 |
| 20260901051216 | 15 | 0 | 1.6 | 3.2 | 0.00 | 0.03 | 0.03 | 80 | 1022.2 |
| 20260901050216 | 15 | 0 | 1.6 | 4.8 | 0.00 | 0.03 | 0.03 | 80 | 1021.9 |
| 20260901045216 | 15 | 0 | 6.4 | 8.0 | 0.00 | 0.03 | 0.03 | 79 | 1022.0 |
| 20260901044235 | 15 | 91 | 0.0 | 1.6 | 0.00 | 0.03 | 0.03 | 78 | 1022.4 |
| 20260901043216 | 15 | 101 | 3.2 | 4.8 | 0.00 | 0.03 | 0.03 | 79 | 1022.2 |
| 20260901042236 | 15 | 127 | 1.6 | 4.8 | 0.00 | 0.03 | 0.03 | 80 | 1022.2 |
| 20260901041215 | 15 | 255 | 0.0 | 1.6 | 0.00 | 0.03 | 0.03 | 81 | 1022.4 |
| 20260901040236 | 15 | 255 | 4.8 | 8.0 | 0.00 | 0.03 | 0.03 | 81 | 1022.2 |
| 20260901035216 | 15 | 273 | 6.4 | 9.7 | 0.00 | 0.03 | 0.03 | 80 | 1022.3 |
| 20260901033216 | 15 | 265 | 9.7 | 14.5 | 0.00 | 0.03 | 0.03 | 80 | 1022.0 |
| 20260901032235 | 15 | 262 | 9.7 | 14.5 | 0.00 | 0.03 | 0.03 | 80 | 1022.0 |
| 20260901031215 | 15 | 240 | 8.0 | 11.3 | 0.00 | 0.03 | 0.03 | 80 | 1022.0 |
| 20260901030215 | 15 | 249 | 8.0 | 12.9 | 0.00 | 0.03 | 0.03 | 81 | 1021.5 |
| 20260901025215 | 15 | 246 | 11.3 | 16.1 | 0.00 | 0.03 | 0.03 | 84 | 1021.5 |
| 20260901024215 | 15 | 153 | 1.6 | 3.2 | 0.00 | 0.03 | 0.03 | 83 | 1021.1 |
| 20260901023236 | 15 | 152 | 1.6 | 4.8 | 0.00 | 0.03 | 0.03 | 83 | 1020.4 |
| 20260901022215 | 15 | 152 | 4.8 | 8.0 | 0.00 | 0.03 | 0.03 | 82 | 1020.4 |
| 20260901021215 | 16 | 101 | 8.0 | 14.5 | 0.00 | 0.03 | 0.03 | 80 | 1020.7 |
| 20260901020215 | 16 | 124 | 9.7 | 17.7 | 0.00 | 0.03 | 0.03 | 75 | 1020.2 |
| 20260901015215 | 16 | 93 | 6.4 | 14.5 | 0.00 | 0.03 | 0.03 | 74 | 1020.6 |
| 20260901014215 | 16 | 105 | 9.7 | 16.1 | 0.03 | 0.03 | 0.03 | 74 | 1020.5 |
| 20260901013215 | 16 | 242 | 3.2 | 4.8 | 0.03 | 0.03 | 0.03 | 74 | 1021.0 |
| 20260901012215 | 16 | 224 | 1.6 | 3.2 | 0.03 | 0.03 | 0.03 | 75 | 1021.2 |
| 20260901011215 | 16 | 223 | 3.2 | 4.8 | 0.03 | 0.03 | 0.03 | 74 | 1021.3 |
| 20260901010215 | 16 | 198 | 0.0 | 1.6 | 0.03 | 0.03 | 0.03 | 74 | 1021.9 |
| 20260901005215 | 16 | 175 | 3.2 | 6.4 | 0.03 | 0.03 | 0.03 | 75 | 1022.0 |
| 20260901004215 | 16 | 173 | 3.2 | 12.9 | 0.00 | 0.00 | 0.00 | 75 | 1022.2 |
| 20260901003215 | 16 | 202 | 6.4 | 9.7 | 0.00 | 0.00 | 0.00 | 74 | 1022.0 |
| 20260901002215 | 16 | 224 | 9.7 | 17.7 | 0.00 | 0.00 | 0.00 | 71 | 1021.9 |
| 20260901001215 | 17 | 193 | 11.3 | 17.7 | 0.00 | 0.00 | 0.00 | 70 | 1022.5 |
| 20260901000235 | 17 | 155 | 12.9 | 20.9 | 0.00 | 0.00 | 0.00 | 66 | 1022.7 |
| 20260831235255 | 18 | 209 | 11.3 | 24.1 | 0.00 | 0.00 | 0.00 | 61 | 1022.3 |
| 20260831234215 | 18 | 242 | 22.5 | 32.2 | 0.00 | 0.00 | 0.00 | 58 | 1021.7 |
| 20260831233215 | 18 | 254 | 19.3 | 24.1 | 0.00 | 0.00 | 0.00 | 60 | 1020.7 |
| 20260831232215 | 18 | 248 | 17.7 | 33.8 | 0.00 | 0.00 | 0.00 | 59 | 1020.5 |
| 20260831231215 | 18 | 208 | 14.5 | 25.7 | 0.00 | 0.00 | 0.00 | 63 | 1020.1 |
| 20260831230215 | 19 | 197 | 19.3 | 29.0 | 0.00 | 0.00 | 0.00 | 59 | 1020.1 |
| 20260831225215 | 20 | 225 | 11.3 | 25.7 | 0.00 | 0.00 | 0.00 | 61 | 1020.0 |
| 20260831224255 | 22 | 184 | 27.4 | 41.8 | 0.00 | 0.00 | 0.00 | 44 | 1019.7 |
| 20260831223215 | 23 | 159 | 16.1 | 35.4 | 0.00 | 0.00 | 0.00 | 44 | 1019.3 |
| 20260831222237 | 22 | 159 | 14.5 | 24.1 | 0.00 | 0.00 | 0.00 | 48 | 1018.4 |
| 20260831221217 | 22 | 144 | 24.1 | 45.1 | 0.00 | 0.00 | 0.00 | 51 | 1018.4 |
| 20260831220215 | 23 | 150 | 17.7 | 30.6 | 0.00 | 0.00 | 0.00 | 48 | 1018.4 |
| 20260831215217 | 23 | 157 | 24.1 | 41.8 | 0.00 | 0.00 | 0.00 | 47 | 1018.8 |
| 20260831214217 | 24 | 143 | 29.0 | 43.5 | 0.00 | 0.00 | 0.00 | 47 | 1018.7 |
| 20260831213217 | 25 | 149 | 30.6 | 48.3 | 0.00 | 0.00 | 0.00 | 47 | 1019.3 |
| 20260831212217 | 25 | 157 | 17.7 | 37.0 | 0.00 | 0.00 | 0.00 | 45 | 1019.2 |
| 20260831211217 | 26 | 128 | 11.3 | 32.2 | 0.00 | 0.00 | 0.00 | 41 | 1019.4 |
| 20260831210217 | 26 | 108 | 9.7 | 14.5 | 0.00 | 0.00 | 0.00 | 42 | 1019.7 |
| 20260831205216 | 26 | 100 | 11.3 | 17.7 | 0.00 | 0.00 | 0.00 | 42 | 1019.8 |
| 20260831204217 | 26 | 121 | 12.9 | 22.5 | 0.00 | 0.00 | 0.00 | 39 | 1019.9 |
| 20260831203217 | 26 | 108 | 12.9 | 19.3 | 0.00 | 0.00 | 0.00 | 40 | 1020.3 |
| 20260831202216 | 26 | 102 | 9.7 | 24.1 | 0.00 | 0.00 | 0.00 | 41 | 1020.5 |
| 20260831201217 | 25 | 99 | 4.8 | 20.9 | 0.00 | 0.00 | 0.00 | 44 | 1020.6 |
| 20260831200216 | 26 | 112 | 8.0 | 19.3 | 0.00 | 0.00 | 0.00 | 44 | 1020.8 |
| 20260831195216 | 25 | 117 | 12.9 | 24.1 | 0.00 | 0.00 | 0.00 | 44 | 1021.0 |
| 20260831194216 | 25 | 111 | 12.9 | 19.3 | 0.00 | 0.00 | 0.00 | 43 | 1021.1 |
| 20260831193216 | 25 | 128 | 14.5 | 20.9 | 0.00 | 0.00 | 0.00 | 45 | 1021.1 |
| 20260831192217 | 25 | 106 | 11.3 | 22.5 | 0.00 | 0.00 | 0.00 | 45 | 1020.9 |
| 20260831191216 | 25 | 85 | 9.7 | 19.3 | 0.00 | 0.00 | 0.00 | 48 | 1021.3 |
| 20260831190216 | 25 | 109 | 11.3 | 16.1 | 0.00 | 0.00 | 0.00 | 48 | 1021.7 |
| 20260831185236 | 24 | 111 | 8.0 | 12.9 | 0.00 | 0.00 | 0.00 | 49 | 1021.6 |
| 20260831184237 | 25 | 124 | 9.7 | 16.1 | 0.00 | 0.00 | 0.00 | 47 | 1022.0 |
| 20260831183256 | 25 | 114 | 9.7 | 17.7 | 0.00 | 0.00 | 0.00 | 48 | 1022.2 |
| 20260831182216 | 24 | 111 | 8.0 | 12.9 | 0.00 | 0.00 | 0.00 | 50 | 1022.4 |
| 20260831181216 | 23 | 134 | 8.0 | 14.5 | 0.00 | 0.00 | 0.00 | 51 | 1022.2 |
| 20260831180216 | 23 | 93 | 8.0 | 11.3 | 0.00 | 0.00 | 0.00 | 51 | 1022.3 |
| 20260831175216 | 23 | 153 | 11.3 | 17.7 | 0.00 | 0.00 | 0.00 | 49 | 1022.4 |
| 20260831174216 | 23 | 143 | 12.9 | 17.7 | 0.00 | 0.00 | 0.00 | 50 | 1022.4 |
| 20260831173216 | 23 | 100 | 16.1 | 20.9 | 0.00 | 0.00 | 0.00 | 51 | 1022.4 |
| 20260831172216 | 22 | 100 | 14.5 | 20.9 | 0.00 | 0.00 | 0.00 | 51 | 1022.5 |
| 20260831171216 | 22 | 139 | 11.3 | 19.3 | 0.00 | 0.00 | 0.00 | 51 | 1022.5 |
| 20260831170216 | 22 | 113 | 11.3 | 17.7 | 0.00 | 0.00 | 0.00 | 53 | 1022.2 |
| 20260831165216 | 22 | 128 | 4.8 | 9.7 | 0.00 | 0.00 | 0.00 | 54 | 1022.3 |
| 20260831164216 | 22 | 93 | 4.8 | 12.9 | 0.00 | 0.00 | 0.00 | 55 | 1022.1 |
| 20260831163216 | 22 | 112 | 6.4 | 11.3 | 0.00 | 0.00 | 0.00 | 56 | 1022.4 |
| 20260831162216 | 22 | 123 | 4.8 | 11.3 | 0.00 | 0.00 | 0.00 | 56 | 1022.3 |
| 20260831161216 | 21 | 135 | 4.8 | 8.0 | 0.00 | 0.00 | 0.00 | 56 | 1021.9 |
| 20260831160216 | 22 | 134 | 1.6 | 6.4 | 0.00 | 0.00 | 0.00 | 55 | 1022.2 |
| 20260831155216 | 22 | 140 | 4.8 | 6.4 | 0.00 | 0.00 | 0.00 | 54 | 1022.0 |
| 20260831154236 | 21 | 245 | 3.2 | 4.8 | 0.00 | 0.00 | 0.00 | 55 | 1021.7 |
| 20260831153216 | 21 | 139 | 1.6 | 4.8 | 0.00 | 0.00 | 0.00 | 57 | 1021.8 |
| 20260831152216 | 21 | 182 | 3.2 | 9.7 | 0.00 | 0.00 | 0.00 | 56 | 1021.9 |
| 20260831151216 | 21 | 98 | 1.6 | 3.2 | 0.00 | 0.00 | 0.00 | 57 | 1021.9 |
| 20260831150236 | 21 | 105 | 0.0 | 3.2 | 0.00 | 0.00 | 0.00 | 59 | 1022.4 |
| 20260831145216 | 20 | 135 | 1.6 | 4.8 | 0.00 | 0.00 | 0.00 | 63 | 1022.3 |
| 20260831144236 | 20 | 107 | 1.6 | 4.8 | 0.00 | 0.00 | 0.00 | 65 | 1022.2 |
| 20260831143216 | 18 | 144 | 0.0 | 3.2 | 0.00 | 0.00 | 0.00 | 66 | 1021.8 |
| 20260831142216 | 18 | 56 | 0.0 | 1.6 | 0.00 | 0.00 | 0.00 | 68 | 1021.8 |
| 20260831141216 | 17 | 0.0 | 0.0 | 0.00 | 0.00 | 0.00 | 70 | 1021.5 | |
| 20260831140216 | 16 | 0.0 | 1.6 | 0.00 | 0.00 | 0.00 | 75 | 1021.9 | |
| 20260831135256 | 15 | 56 | 1.6 | 3.2 | 0.00 | 0.00 | 0.00 | 77 | 1021.3 |
| 20260831134216 | 15 | 56 | 3.2 | 4.8 | 0.00 | 0.00 | 0.00 | 77 | 1021.3 |
| 20260831133216 | 15 | 56 | 3.2 | 4.8 | 0.00 | 0.00 | 0.00 | 75 | 1021.6 |
| 20260831132215 | 16 | 56 | 0.0 | 3.2 | 0.00 | 0.03 | 0.00 | 73 | 1021.4 |
| 20260831131216 | 16 | 56 | 4.8 | 4.8 | 0.00 | 0.03 | 0.00 | 70 | 1021.6 |
| 20260831130216 | 17 | 56 | 1.6 | 3.2 | 0.00 | 0.03 | 0.00 | 70 | 1021.7 |
| 20260831125215 | 16 | 56 | 3.2 | 4.8 | 0.00 | 0.03 | 0.00 | 70 | 1021.5 |
| 20260831124216 | 16 | 55 | 4.8 | 6.4 | 0.00 | 0.03 | 0.00 | 70 | 1021.5 |
| 20260831123235 | 16 | 65 | 4.8 | 6.4 | 0.00 | 0.03 | 0.00 | 69 | 1021.8 |
| 20260831122215 | 16 | 82 | 3.2 | 4.8 | 0.00 | 0.03 | 0.00 | 71 | 1021.8 |
| 20260831121215 | 16 | 0 | 6.4 | 8.0 | 0.00 | 0.03 | 0.00 | 69 | 1021.7 |
| 20260831120215 | 16 | 313 | 4.8 | 6.4 | 0.00 | 0.03 | 0.00 | 69 | 1021.9 |
| 20260831115216 | 16 | 256 | 3.2 | 4.8 | 0.00 | 0.03 | 0.00 | 68 | 1021.9 |
| 20260831114215 | 16 | 310 | 6.4 | 11.3 | 0.00 | 0.03 | 0.00 | 68 | 1022.1 |
| 20260831113216 | 16 | 330 | 1.6 | 6.4 | 0.00 | 0.03 | 0.00 | 70 | 1021.7 |
| 20260831112215 | 16 | 344 | 8.0 | 12.9 | 0.00 | 0.03 | 0.00 | 71 | 1021.7 |
| 20260831111215 | 15 | 344 | 4.8 | 6.4 | 0.00 | 0.03 | 0.00 | 72 | 1021.6 |
| 20260831110215 | 15 | 344 | 1.6 | 4.8 | 0.00 | 0.03 | 0.00 | 72 | 1021.3 |
| 20260831105215 | 15 | 0.0 | 0.0 | 0.00 | 0.03 | 0.00 | 71 | 1021.3 | |
| 20260831104215 | 15 | 344 | 3.2 | 6.4 | 0.00 | 0.03 | 0.00 | 71 | 1021.1 |
| 20260831103215 | 16 | 344 | 3.2 | 4.8 | 0.00 | 0.03 | 0.00 | 69 | 1020.7 |
| 20260831102215 | 16 | 344 | 0.0 | 1.6 | 0.00 | 0.03 | 0.00 | 70 | 1020.7 |
| 20260831101215 | 15 | 344 | 0.0 | 3.2 | 0.00 | 0.03 | 0.00 | 72 | 1020.6 |
| 20260831100215 | 16 | 344 | 0.0 | 1.6 | 0.00 | 0.03 | 0.00 | 71 | 1020.8 |
| 20260831095215 | 16 | 0.0 | 1.6 | 0.00 | 0.03 | 0.00 | 71 | 1020.7 | |
| 20260831094215 | 15 | 344 | 3.2 | 6.4 | 0.00 | 0.03 | 0.00 | 73 | 1020.5 |
| 20260831093216 | 16 | 344 | 3.2 | 4.8 | 0.00 | 0.03 | 0.00 | 72 | 1021.0 |
| 20260831092215 | 16 | 344 | 1.6 | 3.2 | 0.00 | 0.03 | 0.00 | 73 | 1020.9 |
| 20260831091235 | 16 | 344 | 0.0 | 3.2 | 0.00 | 0.03 | 0.00 | 72 | 1020.9 |
| 20260831090235 | 16 | 0.0 | 0.0 | 0.00 | 0.05 | 0.00 | 72 | 1020.5 | |
| 20260831085215 | 16 | 344 | 3.2 | 3.2 | 0.00 | 0.05 | 0.00 | 71 | 1020.5 |
| 20260831084215 | 16 | 344 | 3.2 | 4.8 | 0.00 | 0.05 | 0.00 | 70 | 1020.9 |
| 20260831083215 | 17 | 344 | 0.0 | 1.6 | 0.00 | 0.05 | 0.00 | 69 | 1021.0 |
| 20260831082215 | 17 | 344 | 0.0 | 3.2 | 0.00 | 0.05 | 0.00 | 66 | 1021.0 |
| 20260831081215 | 17 | 344 | 6.4 | 9.7 | 0.00 | 0.05 | 0.00 | 67 | 1021.0 |
| 20260831080215 | 17 | 344 | 6.4 | 8.0 | 0.00 | 0.05 | 0.00 | 69 | 1021.2 |
| 20260831075215 | 17 | 344 | 6.4 | 9.7 | 0.00 | 0.05 | 0.00 | 70 | 1021.2 |
| 20260831074215 | 17 | 20 | 4.8 | 6.4 | 0.00 | 0.05 | 0.00 | 66 | 1021.2 |
| 20260831073215 | 18 | 0.0 | 1.6 | 0.00 | 0.05 | 0.00 | 67 | 1021.4 | |
| 20260831072215 | 17 | 317 | 11.3 | 16.1 | 0.00 | 0.05 | 0.00 | 69 | 1021.1 |
| 20260831071217 | 16 | 355 | 6.4 | 8.0 | 0.00 | 0.05 | 0.00 | 73 | 1021.1 |